SCP
1 1 1 1 1 1 1 1 1 1 1 1 1 1 1 1 1 1 1 1 1 1 1 1 1 1 1 0 0 0 0 0 0 0 0 0 0 0 0 0 0 0 0
1 1 1 1 1 1 1 1 1 1 1 1 1 1 1 1 1 1 1 1 1 1 1 1 1 1 1 0 0 0 0 0 0 0 0 0 0 0 0 0 0 0 0
1 1 1 1 1 1 1 1 1 1 1 1 1 1 1 1 1 1 1 1 1 1 1 1 1 1 1 1 1 1 0 0 0 0 0 0 0 0 0 0 0 0 0
1 1 1 1 1 1 2 2 2 1 1 1 1 1 1 1 1 1 1 1 1 1 1 1 1 1 1 1 1 1 1 0 0 0 0 0 0 0 0 0 0 0 0
1 1 1 1 2 2 2 2 2 1 1 2 2 2 2 2 2 1 1 1 1 1 1 1 1 1 1 1 1 1 1 0 0 0 0 0 0 0 0 0 0 1 1
1 1 1 2 2 2 2 2 2 2 2 2 2 2 2 2 2 2 1 1 1 1 1 1 1 1 1 1 1 1 1 1 1 0 0 0 0 0 0 1 1 1 1
2 1 2 2 2 2 2 2 2 2 2 2 2 2 2 2 2 2 2 2 1 1 1 1 1 1 1 1 1 1 1 1 1 1 1 0 0 0 0 1 1 1 1
2 2 2 2 2 2 2 2 2 2 2 2 2 2 2 2 2 2 2 2 2 2 2 2 2 2 2 2 1 1 1 1 1 1 1 0 0 0 0 1 1 1 1
2 2 1 1 2 2 2 2 2 2 2 2 2 2 2 2 2 2 2 2 2 2 2 2 1 1 2 2 2 2 1 1 1 1 1 1 1 1 1 1 1 1 1
2 2 1 1 2 2 2 2 2 2 2 1 1 1 1 1 1 1 2 2 2 2 1 1 1 1 1 1 1 1 1 1 1 1 1 1 1 1 1 1 1 1 1
2 2 1 2 2 2 2 2 1 1 1 1 1 1 1 1 1 1 2 2 1 1 1 1 1 1 1 1 1 1 1 1 1 1 1 1 1 1 1 1 1 1 1
2 2 1 2 2 2 2 2 1 1 1 1 1 1 1 1 1 1 1 1 1 1 1 1 1 1 1 1 1 1 1 1 1 1 1 1 1 1 1 1 1 1 1
2 2 1 2 2 2 2 2 1 1 1 1 1 1 1 1 2 2 2 1 1 1 1 1 1 1 1 1 1 1 1 1 1 1 1 1 1 2 2 2 1 1 1
2 2 2 2 2 2 2 2 2 2 1 1 1 1 1 2 2 2 2 1 1 1 1 1 1 1 1 1 1 1 1 1 1 1 1 1 1 1 1 2 2 1 1
2 2 2 2 2 2 2 1 1 1 1 1 1 1 1 2 2 1 1 1 1 1 1 1 1 1 1 1 1 1 1 1 1 1 1 1 1 1 1 1 2 2 2
2 2 2 2 2 2 2 1 1 1 1 1 1 1 1 1 1 1 1 1 1 1 1 0 0 1 1 1 1 1 1 1 1 1 1 1 1 1 1 1 1 2 2
2 2 2 2 2 2 2 2 1 1 1 1 1 0 0 1 1 1 1 1 1 1 1 0 0 0 1 1 1 1 1 1 1 1 1 1 1 1 1 1 1 2 2
2 2 2 2 2 2 2 2 2 1 1 0 0 0 0 1 1 1 1 1 1 1 1 0 0 0 0 1 1 1 1 1 1 1 1 1 1 1 1 1 1 2 2
3 2 2 2 2 2 2 2 2 1 1 0 0 0 0 1 1 1 1 2 3 2 1 1 1 1 0 1 1 1 1 1 1 1 1 0 0 0 1 1 1 1 1
4 3 2 2 2 2 2 2 1 1 1 1 1 1 1 1 1 1 1 3 5 3 1 1 1 1 0 1 1 1 1 1 1 0 0 0 0 0 0 0 1 1 1
4 4 3 1 1 2 2 2 1 1 1 1 1 1 1 1 1 1 1 2 3 2 1 1 1 1 1 1 1 1 1 1 0 0 0 0 0 0 0 0 0 1 1
4 4 2 1 1 1 1 2 2 2 1 1 1 1 1 1 1 1 1 1 1 1 1 1 1 1 1 1 1 1 1 1 0 0 0 0 0 0 0 0 0 0 0
3 3 2 1 1 1 1 2 2 2 2 1 1 1 1 1 1 1 1 1 1 1 1 1 1 1 1 1 1 1 1 1 0 0 0 0 0 0 0 0 0 0 0
2 2 2 2 2 1 2 2 2 2 2 1 1 1 1 1 1 1 1 1 1 1 1 1 1 1 1 1 1 1 1 1 0 0 0 0 0 0 0 0 0 0 0
2 2 2 2 2 2 2 3 2 2 2 1 1 1 1 1 1 1 1 1 1 1 1 1 1 1 1 1 1 1 1 1 0 0 0 0 0 0 0 0 0 0 0
2 2 3 3 3 3 3 3 3 2 2 1 1 1 1 1 1 1 1 1 1 1 1 1 1 1 1 1 1 1 1 1 0 0 0 0 0 0 0 0 0 0 0
Wind_Speed
6 7 13 14 14 14 15 16 16 17 17 17 17 16 15 15 14 13 12 12 11 10 10 9 9 9 9 9 9 9 9 9 9 10 10 10 10 10 10 10 10 8 11
9 9 14 14 15 15 15 15 16 16 16 16 16 15 15 14 13 12 11 11 10 10 10 9 9 8 8 8 8 8 8 8 8 8 9 8 9 10 10 10 10 7 10
11 9 12 15 15 15 15 15 15 15 15 15 14 14 14 13 12 11 11 10 9 9 9 9 8 8 8 7 7 7 7 7 7 7 6 4 6 9 9 10 10 10 10
11 8 10 15 15 15 15 14 14 14 14 14 13 13 12 12 11 10 10 9 9 8 8 7 7 7 7 6 6 6 5 5 6 6 3 2 3 7 9 10 10 10 10
9 7 9 15 14 14 14 14 13 13 13 13 12 12 11 11 10 9 9 8 7 7 6 6 6 6 5 5 5 4 4 4 4 4 3 2 2 6 9 10 10 10 10
8 6 9 14 14 14 13 13 12 12 12 11 11 10 9 9 8 8 7 7 6 6 5 5 4 4 4 4 3 2 2 3 3 3 3 3 3 7 9 10 10 10 10
8 5 8 12 13 13 13 12 11 11 10 10 9 9 8 7 6 6 6 5 5 4 4 3 3 2 2 2 1 1 0 2 3 3 3 4 5 9 10 10 10 11 11
8 6 6 11 12 12 12 11 10 10 9 8 8 7 6 6 5 4 4 3 3 3 2 2 2 1 0 0 0 1 1 1 1 2 3 4 6 9 10 10 11 11 11
7 6 5 5 7 9 10 10 9 9 8 7 6 6 5 4 4 3 3 2 2 2 2 1 1 0 1 1 2 2 2 1 1 1 2 3 7 10 11 11 11 12 11
6 5 4 4 4 4 5 8 8 8 7 6 6 5 5 4 3 3 2 1 1 0 0 1 1 1 2 3 3 3 3 1 1 2 2 3 8 10 11 11 12 12 12
6 4 4 4 4 4 3 5 5 6 5 5 4 4 4 2 2 2 2 1 1 1 1 1 2 2 2 3 4 4 3 0 1 2 2 5 8 10 10 11 12 12 12
5 4 3 4 4 3 3 3 3 3 3 3 2 3 2 2 2 2 3 3 3 3 3 3 3 2 1 1 2 3 1 1 2 2 3 7 8 9 9 10 11 12 12
5 4 3 3 4 4 3 3 2 2 2 2 3 2 2 2 2 2 2 3 3 3 3 3 3 2 1 1 1 1 1 1 1 2 3 7 7 8 8 9 11 11 12
5 4 3 3 4 3 3 3 2 2 1 2 2 2 1 1 1 1 1 2 2 2 2 2 1 2 2 1 1 2 2 1 1 1 3 6 6 7 7 8 10 11 12
4 3 3 3 4 3 3 2 2 2 2 2 2 2 2 2 1 1 1 1 2 2 2 2 2 2 2 2 2 2 2 2 2 2 2 6 6 6 7 8 8 9 10
3 3 3 3 3 4 3 3 2 2 2 2 2 2 2 1 1 1 1 1 2 2 2 1 1 1 1 2 2 2 2 2 2 2 2 4 6 6 6 6 7 8 8
3 3 3 3 4 4 4 3 2 2 2 2 2 2 2 2 1 1 1 1 2 2 2 1 2 2 2 2 2 3 2 3 3 3 2 2 3 4 5 5 5 6 6
4 3 3 3 4 4 3 3 2 2 2 2 2 2 3 2 2 1 1 2 2 2 2 1 2 2 2 2 2 3 2 3 3 3 2 2 2 2 4 7 6 5 4
4 3 3 3 4 4 4 3 3 2 2 2 2 2 3 3 3 2 1 2 2 2 2 2 1 1 2 2 2 2 2 3 3 3 3 3 3 3 3 5 7 7 6
4 4 4 4 3 3 3 3 2 3 2 2 2 3 3 3 3 2 2 3 3 2 2 2 2 1 1 2 2 2 2 2 2 3 3 3 3 4 4 5 4 5 8
4 4 3 3 2 2 2 2 2 2 2 2 2 3 3 3 3 2 2 2 2 2 2 2 1 1 1 1 1 2 2 2 2 2 3 3 4 5 5 5 4 3 3
3 3 3 2 2 2 2 2 2 2 1 1 2 3 4 3 3 2 2 2 2 2 2 2 1 1 1 1 1 0 1 2 2 3 3 3 4 4 5 5 5 4 3
3 3 3 3 2 2 2 2 3 3 2 2 2 3 3 4 3 3 2 2 2 2 1 2 1 1 1 1 0 0 0 1 1 2 3 3 4 4 4 4 4 5 4
2 2 3 3 2 2 3 3 3 2 1 0 1 1 3 3 3 3 3 3 2 2 2 2 2 1 0 1 1 1 1 1 1 1 1 2 3 4 4 4 4 4 4
2 2 2 3 3 3 3 3 3 2 1 1 1 2 2 3 3 4 3 3 3 2 2 2 2 1 0 1 1 1 0 0 1 1 1 1 2 3 3 3 3 3 4
3 3 3 3 2 3 3 3 3 3 2 2 1 2 2 2 3 4 4 3 3 2 2 2 2 1 1 1 1 1 1 1 1 1 1 1 2 2 3 2 2 2 3
Wind_Direction
144 148 141 134 127 119 114 111 108 107 107 108 110 112 114 116 118 119 120 119 116 113 109 104 102 101 102 105 107 110 114 118 122 125 127 130 132 130 128 125 121 121 124
142 148 142 136 129 123 118 115 113 111 110 111 113 115 117 118 119 119 118 117 115 113 110 108 107 106 107 110 114 118 122 126 130 134 136 139 140 138 137 134 133 135 133
136 141 141 136 130 126 122 118 116 114 114 114 115 117 118 119 119 119 118 116 114 113 111 111 112 111 110 113 117 123 126 131 135 134 125 122 145 150 148 145 143 141 139
135 136 141 137 132 128 125 122 120 119 118 118 119 120 121 121 121 120 119 118 115 114 113 115 116 115 115 118 121 126 130 135 143 135 118 133 160 160 157 153 152 150 147
130 132 143 138 134 131 129 127 125 124 122 122 121 121 122 122 122 122 121 120 118 117 117 116 116 117 119 121 124 130 142 157 163 146 153 160 176 174 168 164 161 158 156
126 129 142 139 137 134 132 130 129 127 126 125 124 123 122 122 121 122 122 122 122 121 120 120 120 118 120 122 126 132 151 175 157 156 174 186 191 186 178 175 171 167 164
124 122 136 138 138 138 136 134 133 132 130 128 127 126 125 123 123 125 126 126 127 129 130 131 126 119 113 117 123 125 221 174 155 176 186 194 200 197 190 186 180 177 174
126 121 128 138 139 138 137 137 136 134 131 128 127 126 125 125 126 129 131 135 138 139 136 139 140 139 138 46 316 308 305 252 163 190 199 202 210 207 200 194 189 187 184
112 114 115 128 133 136 137 137 136 132 128 126 126 125 125 126 130 134 136 144 147 148 150 155 176 198 292 300 294 288 288 275 136 212 221 209 218 213 207 203 198 195 192
105 102 93 99 102 111 124 132 131 127 123 122 123 123 122 114 108 102 88 114 143 166 226 246 273 283 290 294 298 299 293 299 233 236 237 230 228 222 217 210 206 201 200
107 97 89 89 88 92 105 121 120 119 112 108 105 106 99 71 59 51 33 30 360 338 311 301 294 298 312 315 311 315 321 280 254 244 238 246 240 234 227 217 214 210 208
125 116 90 93 91 87 96 86 77 85 82 77 73 75 72 64 44 40 13 10 10 10 351 334 325 320 338 316 313 327 338 276 259 250 245 251 249 239 231 224 220 218 214
127 121 106 98 89 80 72 78 68 65 65 62 57 57 60 58 36 29 19 5 1 0 358 349 348 346 345 317 309 309 305 295 272 265 263 265 263 250 236 227 223 220 219
119 118 104 93 94 85 80 80 76 71 66 54 43 51 62 54 40 22 21 4 4 0 350 348 341 338 333 334 325 317 323 316 295 280 278 282 285 276 260 245 233 226 222
119 116 112 106 110 103 92 86 79 71 71 55 41 41 54 45 17 7 15 4 359 357 346 334 343 344 337 336 341 327 320 319 310 300 295 296 298 291 279 268 254 241 234
112 105 108 112 112 104 97 95 89 79 70 58 42 29 42 44 21 15 14 8 359 343 325 319 329 335 333 347 346 338 315 308 314 311 299 305 310 306 301 290 274 260 247
117 100 101 108 94 100 101 96 85 75 74 64 39 26 30 31 26 30 24 11 351 336 331 342 0 1 6 7 346 332 327 328 328 320 316 316 320 326 336 334 315 285 263
109 100 93 100 98 98 96 96 89 76 74 59 43 31 29 27 37 49 34 7 349 348 360 2 16 6 7 1 345 336 350 353 351 349 -0 6 3 360 360 2 355 345 323
113 107 89 82 88 93 91 85 83 75 64 50 43 33 24 28 40 62 44 3 5 12 13 3 24 21 2 354 338 355 11 13 5 14 26 23 23 23 21 15 16 14 13
100 91 84 79 82 96 95 85 73 65 49 42 39 28 27 26 34 40 36 13 15 15 6 4 4 11 352 338 349 16 16 10 13 22 22 25 29 34 33 28 17 15 20
89 88 89 90 93 105 103 102 91 72 46 32 28 29 29 27 30 35 22 14 14 14 356 1 359 7 2 2 20 5 5 14 22 21 24 31 33 34 35 32 23 16 11
114 108 102 101 103 108 119 121 113 104 79 54 14 24 24 23 19 26 24 9 4 12 9 7 12 8 331 360 29 359 343 350 14 18 23 33 34 31 30 26 23 23 19
129 125 109 105 97 93 95 91 82 64 48 31 13 8 5 14 19 23 23 19 8 18 350 340 355 12 309 309 3 127 191 257 323 357 19 30 32 31 24 17 21 20 16
145 116 109 111 105 101 104 112 111 108 103 4 345 349 359 10 13 19 24 26 19 13 357 339 10 342 319 302 318 332 253 202 208 306 355 16 20 28 23 15 10 9 9
120 103 102 103 95 93 98 112 110 111 116 70 46 27 11 2 8 13 15 16 13 2 351 353 355 353 309 264 265 258 261 286 206 195 263 330 2 13 14 7 3 3 3
111 104 103 102 87 86 95 93 104 123 116 95 58 23 1 355 359 5 8 7 1 355 349 344 344 348 341 306 283 257 228 213 218 199 220 284 326 341 351 359 6 1 356